STARLINK-3754, 52350

Orbit data source: Space-Track

STARLINK-3754, 52350 is a payload satellite owned by SpaceX/Seattle (US) in LEO that was launched on Fri, 29 Apr 2022 UTC via an FALCON 9 launch vehicle from the Air Force Eastern Test Range (AFETR). Payload-class satellites include a variety of spacecraft equipped with specific instruments for various scientific and technological missions. These include communications satellites like Starlink; space stations such as the ISS; scientific satellites like the Hubble; Earth observation satellites from companies like Planet Labs, Umbra, and HawkEye 360; GPS; miniature CubeSats for education and research; and military/defense satellites.

Loading next visibility...
Identifier
52350, 2022-045V
Orbit
LEO
Country
Flag of USUS
Related business
Manufacturer
SpaceX/Seattle
Mission
Operational Commercial Communications
Bus & Motor
STARLINK, Unknown motor
Mass
297 kg wet, ~275 kg dry
Launch date (UTC)
2022-04-29 (4 years ago)
Launch vehicle
FALCON 9
Launch site
Air Force Eastern Test Range (AFETR)
Object type
Payload
Rocket body
Debris
Shape & HBR
Box + 1 Pan, 10.1 m
Radar Cross Section
11.087 m², Large (>1 m²)

Expand to show TLE details & history
Last TLE update: 17 hours ago

TLE from 17 hours ago
0 STARLINK-3754
1 52350U 22045V   25348.90901644  .00000231  00000-0  32593-4 0  9995
2 52350  53.2164 219.7167 0001276  89.2756 270.8383 15.08827026202985
Epoch: 2025-12-14T21:48Z
TLE epoch observation values (Epoch: 2025-12-14T21:48:59.020Z)
Latitude
0.00003°
Longitude
168.65563°
Altitude
540.668 km
Speed
7.593 km/s
True Right ascension
14h 38m 52s
True Declination
0° 00' 00"
Sunlit
Object was in daylight at epoch
Visualization orbit readout
Latitude
Unknown
Longitude
Unknown
Altitude
Unknown
Speed
Unknown
Apparent Right ascension
Unknown
Apparent Declination
Unknown
Sunlit
N/A
Visualization observer readout
Local Sidereal Time
13:20:30
Azimuth
Unknown
Elevation
Unknown
Doppler factor
Unknown
Orbital elements
Apogee altitude
540.911 km
Perigee altitude
539.145 km
Semi-major axis
6,918.165 km
Eccentricity
0.00013
Inclination
53.2164°
RAAN
219.7167°
Arg. of periapsis
89.2756°
True anomaly
270.82368°
Mean anomaly
270.8383°
Eccentric anomaly
270.83099°
Mean motion
3.77187 °/min
Orbital period
95.44 mins
BSTAR
0.000032593
Loading maneuver chart data...
Computing Atmospheric mass density...
Loading historical data...
Loading historical data...
Loading historical data...
Loading historical data...
Loading historical data...
Loading historical data...
Loading historical data...

Documentation

Showing up to 5 results
|